Time,TemperatureF,DewpointF,PressureIn,WindDirection,WindDirectionDegrees,WindSpeedMPH,WindSpeedGustMPH,Humidity,HourlyPrecipIn,Conditions,Clouds,dailyrainin,SoftwareType,DateUTC
2013-01-16 00:05:00,23.3,18.9,29.97,NNW,328,0.0,1.0,83,0.00,,CLR,0.00,VWS V14.01,2013-01-16 05:05:00,
2013-01-16 00:12:00,23.3,18.9,29.97,NNW,328,0.0,1.0,83,0.00,,CLR,0.00,VWS V14.01,2013-01-16 05:12:00,
2013-01-16 00:15:00,23.5,19.1,29.96,NNW,328,0.0,1.0,83,0.00,,CLR,0.00,VWS V14.01,2013-01-16 05:15:00,
2013-01-16 00:20:00,23.5,19.1,29.96,NNW,328,2.0,2.0,83,0.00,,CLR,0.00,VWS V14.01,2013-01-16 05:20:00,
2013-01-16 00:25:00,23.3,18.9,29.96,NNW,328,1.0,2.0,83,0.00,,CLR,0.00,VWS V14.01,2013-01-16 05:25:00,
2013-01-16 00:30:00,23.2,18.8,29.96,NNW,328,0.0,2.0,83,0.00,,CLR,0.00,VWS V14.01,2013-01-16 05:30:00,
2013-01-16 00:35:00,23.0,18.9,29.96,NNW,328,0.0,1.0,84,0.00,,CLR,0.00,VWS V14.01,2013-01-16 05:35:00,
2013-01-16 00:40:00,22.9,18.8,29.96,NNW,328,0.0,0.0,84,0.00,,CLR,0.00,VWS V14.01,2013-01-16 05:40:00,
2013-01-16 00:50:00,22.9,18.8,29.96,NNW,328,0.0,0.0,84,0.00,,CLR,0.00,VWS V14.01,2013-01-16 05:50:00,
2013-01-16 00:55:00,22.7,18.6,29.96,NNW,328,0.0,0.0,84,0.00,,CLR,0.00,VWS V14.01,2013-01-16 05:55:00,
2013-01-16 01:05:00,22.7,18.6,29.95,NNW,328,0.0,0.0,84,0.00,,CLR,0.00,VWS V14.01,2013-01-16 06:05:00,
2013-01-16 01:15:00,22.5,18.4,29.94,NNW,328,0.0,0.0,84,0.00,,CLR,0.00,VWS V14.01,2013-01-16 06:15:00,
2013-01-16 01:20:00,22.5,18.4,29.94,NNW,328,2.0,2.0,84,0.00,,CLR,0.00,VWS V14.01,2013-01-16 06:20:00,
2013-01-16 01:25:00,22.5,18.4,29.94,NNW,328,1.0,3.0,84,0.00,,CLR,0.00,VWS V14.01,2013-01-16 06:25:00,
2013-01-16 01:30:00,22.5,18.4,29.94,NNW,328,2.0,2.0,84,0.00,,CLR,0.00,VWS V14.01,2013-01-16 06:30:00,
2013-01-16 01:35:00,22.4,18.6,29.94,NNW,328,2.0,3.0,85,0.00,,CLR,0.00,VWS V14.01,2013-01-16 06:35:00,
2013-01-16 01:40:00,22.5,18.7,29.94,NNW,328,0.0,2.0,85,0.00,,CLR,0.00,VWS V14.01,2013-01-16 06:40:00,
2013-01-16 01:45:00,22.4,18.6,29.94,NNW,328,0.0,0.0,85,0.00,,CLR,0.00,VWS V14.01,2013-01-16 06:45:00,
2013-01-16 01:50:00,22.4,18.6,29.94,NNW,328,0.0,1.0,85,0.00,,CLR,0.00,VWS V14.01,2013-01-16 06:50:00,
2013-01-16 01:55:00,22.4,18.6,29.94,NNW,328,1.0,2.0,85,0.00,,CLR,0.00,VWS V14.01,2013-01-16 06:55:00,
2013-01-16 02:00:00,22.4,18.6,29.93,NNW,328,0.0,1.0,85,0.00,,CLR,0.00,VWS V14.01,2013-01-16 07:00:00,
2013-01-16 02:05:00,22.4,18.6,29.93,NNW,328,0.0,2.0,85,0.00,,CLR,0.00,VWS V14.01,2013-01-16 07:05:00,
2013-01-16 02:10:00,22.4,18.6,29.93,NNW,328,1.0,2.0,85,0.00,,CLR,0.00,VWS V14.01,2013-01-16 07:10:00,
2013-01-16 02:15:00,22.5,18.7,29.93,NNW,328,2.0,2.0,85,0.00,,CLR,0.00,VWS V14.01,2013-01-16 07:15:00,
2013-01-16 02:20:00,22.5,18.7,29.93,NNW,328,1.0,2.0,85,0.00,,CLR,0.00,VWS V14.01,2013-01-16 07:20:00,
2013-01-16 02:25:00,22.4,18.6,29.93,NNW,328,2.0,2.0,85,0.00,,CLR,0.00,VWS V14.01,2013-01-16 07:25:00,
2013-01-16 02:35:00,22.2,18.4,29.93,NNW,328,0.0,2.0,85,0.00,,CLR,0.00,VWS V14.01,2013-01-16 07:35:00,
2013-01-16 02:40:00,22.2,18.4,29.93,NNW,328,0.0,1.0,85,0.00,,CLR,0.00,VWS V14.01,2013-01-16 07:40:00,
2013-01-16 02:45:00,22.4,18.6,29.92,NNW,328,0.0,1.0,85,0.00,,CLR,0.00,VWS V14.01,2013-01-16 07:45:00,
2013-01-16 02:50:00,22.4,18.6,29.92,NNW,328,0.0,1.0,85,0.00,,CLR,0.00,VWS V14.01,2013-01-16 07:50:00,
2013-01-16 03:00:00,22.4,18.6,29.91,NNW,328,1.0,2.0,85,0.00,,SCT120,0.00,VWS V14.01,2013-01-16 08:00:00,
2013-01-16 03:05:00,22.4,18.6,29.91,NNW,328,0.0,2.0,85,0.00,,SCT120,0.00,VWS V14.01,2013-01-16 08:05:00,
2013-01-16 03:10:00,22.4,18.6,29.91,NNW,328,1.0,1.0,85,0.00,,SCT120,0.00,VWS V14.01,2013-01-16 08:10:00,
2013-01-16 03:15:00,22.5,18.7,29.93,NNW,328,0.0,2.0,85,0.00,,SCT120,0.00,VWS V14.01,2013-01-16 08:15:00,
2013-01-16 03:20:00,22.7,18.9,29.93,NNW,328,0.0,0.0,85,0.00,,SCT120,0.00,VWS V14.01,2013-01-16 08:20:00,
2013-01-16 03:30:00,22.5,18.7,29.93,NNW,328,0.0,0.0,85,0.00,,SCT120,0.00,VWS V14.01,2013-01-16 08:30:00,
2013-01-16 03:35:00,22.5,18.7,29.93,NNW,328,0.0,0.0,85,0.00,,SCT120,0.00,VWS V14.01,2013-01-16 08:35:00,
2013-01-16 03:40:00,22.7,18.9,29.93,NNW,328,0.0,0.0,85,0.00,,SCT120,0.00,VWS V14.01,2013-01-16 08:40:00,
2013-01-16 03:45:00,22.7,18.9,29.92,NNW,328,0.0,0.0,85,0.00,,SCT120,0.00,VWS V14.01,2013-01-16 08:45:00,
2013-01-16 03:50:00,22.9,19.1,29.92,NNW,328,0.0,0.0,85,0.00,,SCT120,0.00,VWS V14.01,2013-01-16 08:50:00,
2013-01-16 04:00:00,22.7,19.1,29.91,NNW,328,0.0,0.0,86,0.00,,,0.00,VWS V14.01,2013-01-16 09:00:00,
2013-01-16 04:10:00,23.0,19.5,29.91,NNW,328,0.0,0.0,86,0.00,,,0.00,VWS V14.01,2013-01-16 09:10:00,
2013-01-16 04:15:00,23.2,19.6,29.91,NNW,328,0.0,1.0,86,0.00,,,0.00,VWS V14.01,2013-01-16 09:15:00,
2013-01-16 04:20:00,23.2,19.6,29.91,NNW,328,0.0,1.0,86,0.00,,,0.00,VWS V14.01,2013-01-16 09:20:00,
2013-01-16 04:25:00,23.2,19.6,29.91,NNW,328,0.0,0.0,86,0.00,,,0.00,VWS V14.01,2013-01-16 09:25:00,
2013-01-16 04:30:00,23.5,19.9,29.90,NNW,328,0.0,0.0,86,0.00,,,0.00,VWS V14.01,2013-01-16 09:30:00,
2013-01-16 04:35:00,23.5,19.9,29.90,NNW,328,0.0,0.0,86,0.00,,,0.00,VWS V14.01,2013-01-16 09:35:00,
2013-01-16 04:40:00,23.3,19.7,29.90,NNW,328,0.0,0.0,86,0.00,,,0.00,VWS V14.01,2013-01-16 09:40:00,
2013-01-16 04:45:00,23.3,19.7,29.90,NNW,328,1.0,2.0,86,0.00,,,0.00,VWS V14.01,2013-01-16 09:45:00,
2013-01-16 04:50:00,23.3,19.7,29.90,NNW,328,0.0,2.0,86,0.00,,,0.00,VWS V14.01,2013-01-16 09:50:00,
2013-01-16 04:55:00,23.2,19.6,29.90,NNW,328,0.0,0.0,86,0.00,,,0.00,VWS V14.01,2013-01-16 09:55:00,
2013-01-16 05:00:00,23.2,19.6,29.90,NNW,328,0.0,2.0,86,0.00,,OVC110,0.00,VWS V14.01,2013-01-16 10:00:00,
2013-01-16 05:10:00,23.2,19.6,29.90,NNW,328,0.0,0.0,86,0.00,,OVC110,0.00,VWS V14.01,2013-01-16 10:10:00,
2013-01-16 05:15:00,23.0,19.5,29.90,NNW,328,0.0,1.0,86,0.00,,OVC110,0.00,VWS V14.01,2013-01-16 10:15:00,
2013-01-16 05:20:00,22.9,19.4,29.90,NNW,328,0.0,1.0,86,0.00,,OVC110,0.00,VWS V14.01,2013-01-16 10:20:00,
2013-01-16 05:25:00,22.7,19.1,29.90,NNW,328,0.0,0.0,86,0.00,,OVC110,0.00,VWS V14.01,2013-01-16 10:25:00,
2013-01-16 05:30:00,22.5,19.0,29.88,NNW,328,0.0,0.0,86,0.00,,OVC110,0.00,VWS V14.01,2013-01-16 10:30:00,
2013-01-16 05:35:00,22.4,18.9,29.88,NNW,328,0.0,0.0,86,0.00,,OVC110,0.00,VWS V14.01,2013-01-16 10:35:00,
2013-01-16 05:40:00,22.2,18.7,29.88,NNW,328,0.0,0.0,86,0.00,,OVC110,0.00,VWS V14.01,2013-01-16 10:40:00,
2013-01-16 05:45:00,22.2,18.7,29.88,NNW,328,0.0,0.0,86,0.00,,OVC110,0.00,VWS V14.01,2013-01-16 10:45:00,
2013-01-16 05:50:00,22.2,18.7,29.88,NNW,328,0.0,0.0,86,0.00,,OVC110,0.00,VWS V14.01,2013-01-16 10:50:00,
2013-01-16 06:00:00,22.2,18.7,29.87,NNW,328,0.0,0.0,86,0.00,,OVC110,0.00,VWS V14.01,2013-01-16 11:00:00,
2013-01-16 06:10:00,22.2,18.7,29.87,NNW,328,0.0,1.0,86,0.00,,OVC110,0.00,VWS V14.01,2013-01-16 11:10:00,
2013-01-16 06:15:00,22.2,18.7,29.87,NNW,328,0.0,1.0,86,0.00,,OVC110,0.00,VWS V14.01,2013-01-16 11:15:00,
2013-01-16 06:20:00,22.2,18.7,29.87,NNW,328,0.0,0.0,86,0.00,,OVC110,0.00,VWS V14.01,2013-01-16 11:20:00,
2013-01-16 06:25:00,22.2,18.9,29.87,NNW,328,0.0,1.0,87,0.00,,OVC110,0.00,VWS V14.01,2013-01-16 11:25:00,
2013-01-16 06:30:00,22.2,18.9,29.86,NNW,328,0.0,0.0,87,0.00,,OVC110,0.00,VWS V14.01,2013-01-16 11:30:00,
2013-01-16 06:35:00,22.2,18.9,29.86,NNW,328,0.0,0.0,87,0.00,,OVC110,0.00,VWS V14.01,2013-01-16 11:35:00,
2013-01-16 06:45:00,22.2,18.9,29.86,NNW,328,0.0,1.0,87,0.00,,OVC110,0.00,VWS V14.01,2013-01-16 11:45:00,
2013-01-16 06:50:00,22.2,18.9,29.86,NNW,328,0.0,2.0,87,0.00,,OVC110,0.00,VWS V14.01,2013-01-16 11:50:00,
2013-01-16 07:00:00,22.2,18.9,29.85,NNW,328,1.0,1.0,87,0.00,,OVC100,0.00,VWS V14.01,2013-01-16 12:00:00,
2013-01-16 07:05:00,22.2,18.9,29.85,NNW,328,0.0,1.0,87,0.00,,OVC100,0.00,VWS V14.01,2013-01-16 12:05:00,
2013-01-16 07:10:00,22.2,18.9,29.85,NNW,328,0.0,0.0,87,0.00,,OVC100,0.00,VWS V14.01,2013-01-16 12:10:00,
2013-01-16 07:15:00,22.1,18.8,29.85,NNW,328,0.0,0.0,87,0.00,,OVC100,0.00,VWS V14.01,2013-01-16 12:15:00,
2013-01-16 07:20:00,21.9,18.6,29.85,NNW,328,0.0,2.0,87,0.00,,OVC100,0.00,VWS V14.01,2013-01-16 12:20:00,
2013-01-16 07:25:00,21.9,18.6,29.85,NNW,328,1.0,2.0,87,0.00,,OVC100,0.00,VWS V14.01,2013-01-16 12:25:00,
2013-01-16 07:30:00,21.8,18.5,29.86,NNW,328,1.0,2.0,87,0.00,,OVC100,0.00,VWS V14.01,2013-01-16 12:30:00,
2013-01-16 07:40:00,21.8,18.5,29.86,NNW,328,3.0,3.0,87,0.00,,OVC100,0.00,VWS V14.01,2013-01-16 12:40:00,
2013-01-16 07:45:00,21.6,18.3,29.86,NNW,328,1.0,3.0,87,0.00,,OVC100,0.00,VWS V14.01,2013-01-16 12:45:00,
2013-01-16 07:50:00,21.6,18.3,29.86,NNW,328,2.0,3.0,87,0.00,,OVC100,0.00,VWS V14.01,2013-01-16 12:50:00,
2013-01-16 07:55:00,21.6,18.6,29.86,NNW,328,1.0,2.0,88,0.00,,OVC100,0.00,VWS V14.01,2013-01-16 12:55:00,
2013-01-16 08:05:00,21.6,18.6,29.85,NNW,328,2.0,3.0,88,0.00,,OVC100,0.00,VWS V14.01,2013-01-16 13:05:00,
2013-01-16 08:10:00,21.4,18.1,29.85,NNW,328,1.0,2.0,87,0.00,,OVC100,0.00,VWS V14.01,2013-01-16 13:10:00,
2013-01-16 08:15:00,21.3,18.0,29.86,NNW,328,2.0,3.0,87,0.00,,OVC100,0.00,VWS V14.01,2013-01-16 13:15:00,
2013-01-16 08:20:00,21.1,18.1,29.86,NNW,328,2.0,3.0,88,0.00,,OVC100,0.00,VWS V14.01,2013-01-16 13:20:00,
2013-01-16 08:30:00,21.3,18.3,29.85,NNW,328,3.0,5.0,88,0.00,,OVC100,0.00,VWS V14.01,2013-01-16 13:30:00,
2013-01-16 08:35:00,21.3,18.3,29.85,NNW,328,2.0,6.0,88,0.00,,OVC100,0.00,VWS V14.01,2013-01-16 13:35:00,
2013-01-16 08:40:00,21.4,18.4,29.85,NNW,328,2.0,3.0,88,0.00,,OVC100,0.00,VWS V14.01,2013-01-16 13:40:00,
2013-01-16 08:45:00,21.8,18.8,29.86,NNW,328,2.0,6.0,88,0.00,,OVC100,0.00,VWS V14.01,2013-01-16 13:45:00,
2013-01-16 08:50:00,21.9,18.9,29.86,NNW,328,5.0,8.0,88,0.00,,OVC100,0.00,VWS V14.01,2013-01-16 13:50:00,
2013-01-16 08:55:00,21.9,18.9,29.86,NNW,328,3.0,8.0,88,0.00,,OVC100,0.00,VWS V14.01,2013-01-16 13:55:00,
2013-01-16 09:00:00,22.1,19.1,29.87,NNW,328,6.0,8.0,88,0.00,,,0.00,VWS V14.01,2013-01-16 14:00:00,
2013-01-16 09:10:00,22.1,19.1,29.87,NNW,328,7.0,7.0,88,0.00,,,0.00,VWS V14.01,2013-01-16 14:10:00,
2013-01-16 09:15:00,22.4,19.4,29.87,NNW,328,3.0,12.0,88,0.00,,,0.00,VWS V14.01,2013-01-16 14:15:00,
2013-01-16 09:20:00,22.7,19.7,29.87,NNW,328,10.0,11.0,88,0.00,,,0.00,VWS V14.01,2013-01-16 14:20:00,
2013-01-16 09:25:00,23.0,19.7,29.87,NNW,328,5.0,10.0,87,0.00,,,0.00,VWS V14.01,2013-01-16 14:25:00,
2013-01-16 09:30:00,23.3,20.0,29.88,NNW,328,11.0,11.0,87,0.00,,,0.00,VWS V14.01,2013-01-16 14:30:00,
2013-01-16 09:35:00,23.6,20.0,29.88,NNW,328,7.0,13.0,86,0.00,,,0.00,VWS V14.01,2013-01-16 14:35:00,
2013-01-16 09:45:00,24.1,20.2,29.88,NNW,329,6.0,11.0,85,0.00,,,0.00,VWS V14.01,2013-01-16 14:45:00,
2013-01-16 09:50:00,24.7,20.8,29.88,NNW,328,4.0,9.0,85,0.00,,,0.00,VWS V14.01,2013-01-16 14:50:00,
2013-01-16 09:55:00,25.0,20.9,29.88,NNW,328,5.0,8.0,84,0.00,,,0.00,VWS V14.01,2013-01-16 14:55:00,
2013-01-16 10:00:00,25.1,20.7,29.87,NNW,328,5.0,11.0,83,0.00,,,0.00,VWS V14.01,2013-01-16 15:00:00,
2013-01-16 10:05:00,25.4,20.7,29.87,NNW,328,9.0,13.0,82,0.00,,,0.00,VWS V14.01,2013-01-16 15:05:00,
2013-01-16 10:10:00,25.6,20.9,29.87,NNW,328,8.0,11.0,82,0.00,,,0.00,VWS V14.01,2013-01-16 15:10:00,
2013-01-16 10:15:00,25.4,20.1,29.87,NNW,328,14.0,14.0,80,0.00,,,0.00,VWS V14.01,2013-01-16 15:15:00,
2013-01-16 10:25:00,26.0,20.7,29.87,NNW,328,6.0,10.0,80,0.00,,,0.00,VWS V14.01,2013-01-16 15:25:00,
2013-01-16 10:30:00,26.0,20.4,29.87,NNW,328,12.0,17.0,79,0.00,,,0.00,VWS V14.01,2013-01-16 15:30:00,
2013-01-16 10:35:00,26.3,20.7,29.87,NNW,328,8.0,14.0,79,0.00,,,0.00,VWS V14.01,2013-01-16 15:35:00,
2013-01-16 10:40:00,26.4,20.2,29.87,NNW,328,7.0,17.0,77,0.00,,,0.00,VWS V14.01,2013-01-16 15:40:00,
2013-01-16 10:45:00,26.9,20.7,29.87,NNW,328,10.0,14.0,77,0.00,,,0.00,VWS V14.01,2013-01-16 15:45:00,
2013-01-16 10:50:00,27.0,20.5,29.87,NNW,328,13.0,17.0,76,0.00,,,0.00,VWS V14.01,2013-01-16 15:50:00,
2013-01-16 11:00:00,27.5,20.3,29.86,NNW,328,10.0,13.0,74,0.00,,CLR,0.00,VWS V14.01,2013-01-16 16:00:00,
2013-01-16 11:05:00,27.3,19.8,29.86,NNW,328,18.0,18.0,73,0.00,,CLR,0.00,VWS V14.01,2013-01-16 16:05:00,
2013-01-16 11:10:00,27.2,19.1,29.86,NNW,328,13.0,19.0,71,0.00,,CLR,0.00,VWS V14.01,2013-01-16 16:10:00,
2013-01-16 11:15:00,27.3,18.8,29.86,NNW,328,14.0,18.0,70,0.00,,CLR,0.00,VWS V14.01,2013-01-16 16:15:00,
2013-01-16 11:20:00,27.5,19.0,29.86,NNW,328,14.0,19.0,70,0.00,,CLR,0.00,VWS V14.01,2013-01-16 16:20:00,
2013-01-16 11:25:00,27.6,18.8,29.86,NNW,328,7.0,19.0,69,0.00,,CLR,0.00,VWS V14.01,2013-01-16 16:25:00,
2013-01-16 11:30:00,28.1,19.3,29.85,NNW,328,8.0,14.0,69,0.00,,CLR,0.00,VWS V14.01,2013-01-16 16:30:00,
2013-01-16 11:35:00,28.2,19.0,29.85,NNW,328,6.0,16.0,68,0.00,,CLR,0.00,VWS V14.01,2013-01-16 16:35:00,
2013-01-16 11:40:00,28.2,18.7,29.85,NNW,328,12.0,17.0,67,0.00,,CLR,0.00,VWS V14.01,2013-01-16 16:40:00,
2013-01-16 11:45:00,28.4,18.5,29.84,NNW,328,10.0,14.0,66,0.00,,CLR,0.00,VWS V14.01,2013-01-16 16:45:00,
2013-01-16 11:50:00,28.4,18.1,29.84,NNW,328,12.0,18.0,65,0.00,,CLR,0.00,VWS V14.01,2013-01-16 16:50:00,
2013-01-16 11:55:00,28.8,18.5,29.84,NNW,328,11.0,17.0,65,0.00,,CLR,0.00,VWS V14.01,2013-01-16 16:55:00,
2013-01-16 12:05:00,29.1,18.8,29.82,NNW,328,16.0,16.0,65,0.00,,CLR,0.00,VWS V14.01,2013-01-16 17:05:00,
2013-01-16 12:10:00,29.3,17.9,29.82,NNW,328,8.0,18.0,62,0.00,,CLR,0.00,VWS V14.01,2013-01-16 17:10:00,
2013-01-16 12:15:00,29.7,18.3,29.81,NNW,328,12.0,15.0,62,0.00,,CLR,0.00,VWS V14.01,2013-01-16 17:15:00,
2013-01-16 12:20:00,30.0,17.8,29.81,NNW,328,10.0,18.0,60,0.00,,CLR,0.00,VWS V14.01,2013-01-16 17:20:00,
2013-01-16 12:25:00,30.0,18.2,29.81,NNW,328,13.0,14.0,61,0.00,,CLR,0.00,VWS V14.01,2013-01-16 17:25:00,
2013-01-16 12:30:00,30.3,18.5,29.80,NNW,328,11.0,17.0,61,0.00,,CLR,0.00,VWS V14.01,2013-01-16 17:30:00,
2013-01-16 12:35:00,30.0,17.4,29.80,NNW,328,10.0,20.0,59,0.00,,CLR,0.00,VWS V14.01,2013-01-16 17:35:00,
2013-01-16 12:40:00,30.1,17.9,29.80,NNW,328,16.0,21.0,60,0.00,,CLR,0.00,VWS V14.01,2013-01-16 17:40:00,
2013-01-16 12:45:00,30.7,18.1,29.79,West,278,19.0,20.0,59,0.00,,CLR,0.00,VWS V14.01,2013-01-16 17:45:00,
2013-01-16 12:50:00,30.7,17.7,29.79,West,278,7.0,20.0,58,0.00,,CLR,0.00,VWS V14.01,2013-01-16 17:50:00,
2013-01-16 13:00:00,31.2,17.8,29.79,West,261,20.0,21.0,57,0.00,,CLR,0.00,VWS V14.01,2013-01-16 18:00:00,
2013-01-16 13:10:00,31.8,17.9,29.79,WSW,239,14.0,18.0,56,0.00,,CLR,0.00,VWS V14.01,2013-01-16 18:10:00,
2013-01-16 13:20:00,31.6,16.9,29.78,SW,236,12.0,24.0,54,0.00,,CLR,0.00,VWS V14.01,2013-01-16 18:20:00,
2013-01-16 13:25:00,32.2,17.4,29.78,SW,234,12.0,19.0,54,0.00,,CLR,0.00,VWS V14.01,2013-01-16 18:25:00,
2013-01-16 13:30:00,32.4,16.8,29.77,SW,230,20.0,25.0,52,0.00,,CLR,0.00,VWS V14.01,2013-01-16 18:30:00,
2013-01-16 13:35:00,32.7,17.9,29.77,SW,230,13.0,20.0,54,0.00,,CLR,0.00,VWS V14.01,2013-01-16 18:35:00,
2013-01-16 13:40:00,32.8,17.1,29.77,SW,220,14.0,18.0,52,0.00,,CLR,0.00,VWS V14.01,2013-01-16 18:40:00,
2013-01-16 13:45:00,33.1,18.3,29.77,SW,223,9.0,22.0,54,0.00,,CLR,0.00,VWS V14.01,2013-01-16 18:45:00,
2013-01-16 13:50:00,33.4,18.6,29.77,SW,220,11.0,17.0,54,0.00,,CLR,0.00,VWS V14.01,2013-01-16 18:50:00,
2013-01-16 13:55:00,33.1,18.3,29.77,SW,222,12.0,21.0,54,0.00,,CLR,0.00,VWS V14.01,2013-01-16 18:55:00,
2013-01-16 14:01:00,33.2,17.9,29.77,SW,229,18.0,21.0,53,0.00,,CLR,0.00,VWS V14.01,2013-01-16 19:01:00,
2013-01-16 14:10:00,33.2,16.6,29.77,SSW,209,19.0,24.0,50,0.00,,CLR,0.00,VWS V14.01,2013-01-16 19:10:00,
2013-01-16 14:15:00,33.7,18.0,29.77,SSW,212,15.0,22.0,52,0.00,,CLR,0.00,VWS V14.01,2013-01-16 19:15:00,
2013-01-16 14:20:00,34.3,19.0,29.77,SW,216,14.0,21.0,53,0.00,,CLR,0.00,VWS V14.01,2013-01-16 19:20:00,
2013-01-16 14:25:00,34.4,18.2,29.77,West,263,16.0,22.0,51,0.00,,CLR,0.00,VWS V14.01,2013-01-16 19:25:00,
2013-01-16 14:30:00,34.0,17.8,29.77,SW,234,12.0,26.0,51,0.00,,CLR,0.00,VWS V14.01,2013-01-16 19:30:00,
2013-01-16 14:35:00,34.0,17.3,29.77,WSW,253,13.0,22.0,50,0.00,,CLR,0.00,VWS V14.01,2013-01-16 19:35:00,
2013-01-16 14:40:00,34.3,17.1,29.77,WSW,241,17.0,26.0,49,0.00,,CLR,0.00,VWS V14.01,2013-01-16 19:40:00,
2013-01-16 14:45:00,34.1,17.0,29.76,SW,220,21.0,22.0,49,0.00,,CLR,0.00,VWS V14.01,2013-01-16 19:45:00,
2013-01-16 14:50:00,34.6,17.9,29.76,SW,220,12.0,21.0,50,0.00,,CLR,0.00,VWS V14.01,2013-01-16 19:50:00,
2013-01-16 14:55:00,34.6,17.4,29.76,SW,217,16.0,22.0,49,0.00,,CLR,0.00,VWS V14.01,2013-01-16 19:55:00,
2013-01-16 15:00:00,34.1,17.4,29.76,SW,234,13.0,24.0,50,0.00,,CLR,0.00,VWS V14.01,2013-01-16 20:00:00,
2013-01-16 15:10:00,34.6,18.3,29.76,SW,232,10.0,20.0,51,0.00,,CLR,0.00,VWS V14.01,2013-01-16 20:10:00,
2013-01-16 15:15:00,34.6,18.8,29.76,SW,215,18.0,20.0,52,0.00,,CLR,0.00,VWS V14.01,2013-01-16 20:15:00,
2013-01-16 15:20:00,34.4,18.6,29.76,South,171,8.0,26.0,52,0.00,,CLR,0.00,VWS V14.01,2013-01-16 20:20:00,
2013-01-16 15:25:00,34.9,19.1,29.76,SSW,202,12.0,21.0,52,0.00,,CLR,0.00,VWS V14.01,2013-01-16 20:25:00,
2013-01-16 15:30:00,34.7,18.9,29.75,WSW,237,14.0,27.0,52,0.00,,CLR,0.00,VWS V14.01,2013-01-16 20:30:00,
2013-01-16 15:35:00,34.6,19.2,29.75,SW,232,21.0,25.0,53,0.00,,CLR,0.00,VWS V14.01,2013-01-16 20:35:00,
2013-01-16 15:40:00,34.4,19.0,29.75,SW,216,13.0,24.0,53,0.00,,CLR,0.00,VWS V14.01,2013-01-16 20:40:00,
2013-01-16 15:45:00,34.6,19.2,29.75,SW,223,14.0,24.0,53,0.00,,CLR,0.00,VWS V14.01,2013-01-16 20:45:00,
2013-01-16 15:50:00,34.9,19.5,29.75,SW,219,17.0,19.0,53,0.00,,CLR,0.00,VWS V14.01,2013-01-16 20:50:00,
2013-01-16 15:55:00,34.7,19.8,29.75,SW,216,14.0,24.0,54,0.00,,CLR,0.00,VWS V14.01,2013-01-16 20:55:00,
2013-01-16 16:00:00,34.6,19.7,29.75,SW,217,10.0,22.0,54,0.00,,CLR,0.00,VWS V14.01,2013-01-16 21:00:00,
2013-01-16 16:05:00,34.9,20.0,29.75,SSW,193,17.0,20.0,54,0.00,,CLR,0.00,VWS V14.01,2013-01-16 21:05:00,
2013-01-16 16:10:00,34.7,18.9,29.75,SW,227,18.0,21.0,52,0.00,,CLR,0.00,VWS V14.01,2013-01-16 21:10:00,
2013-01-16 16:15:00,35.0,20.0,29.75,SW,216,10.0,20.0,54,0.00,,CLR,0.00,VWS V14.01,2013-01-16 21:15:00,
2013-01-16 16:20:00,35.2,20.2,29.75,SW,219,17.0,18.0,54,0.00,,CLR,0.00,VWS V14.01,2013-01-16 21:20:00,
2013-01-16 16:25:00,34.7,20.2,29.75,SW,230,15.0,21.0,55,0.00,,CLR,0.00,VWS V14.01,2013-01-16 21:25:00,
2013-01-16 16:30:00,34.6,20.1,29.75,WSW,251,17.0,20.0,55,0.00,,CLR,0.00,VWS V14.01,2013-01-16 21:30:00,
2013-01-16 16:35:00,34.6,20.1,29.75,SW,229,12.0,22.0,55,0.00,,CLR,0.00,VWS V14.01,2013-01-16 21:35:00,
2013-01-16 16:40:00,34.7,20.2,29.75,SSE,164,18.0,21.0,55,0.00,,CLR,0.00,VWS V14.01,2013-01-16 21:40:00,
2013-01-16 16:45:00,34.9,20.8,29.77,West,264,11.0,19.0,56,0.00,,CLR,0.00,VWS V14.01,2013-01-16 21:45:00,
2013-01-16 16:50:00,34.7,20.6,29.77,SSW,202,13.0,19.0,56,0.00,,CLR,0.00,VWS V14.01,2013-01-16 21:50:00,
2013-01-16 16:55:00,34.6,21.0,29.77,SW,222,17.0,20.0,57,0.00,,CLR,0.00,VWS V14.01,2013-01-16 21:55:00,
2013-01-16 17:05:00,34.3,21.1,29.78,SSW,210,14.0,21.0,58,0.00,,SCT050,0.00,VWS V14.01,2013-01-16 22:05:00,
2013-01-16 17:10:00,34.3,21.1,29.78,SW,227,11.0,18.0,58,0.00,,SCT050,0.00,VWS V14.01,2013-01-16 22:10:00,
2013-01-16 17:15:00,34.1,21.3,29.79,WSW,256,11.0,19.0,59,0.00,,SCT050,0.00,VWS V14.01,2013-01-16 22:15:00,
2013-01-16 17:20:00,34.0,21.6,29.79,SW,223,7.0,16.0,60,0.00,,SCT050,0.00,VWS V14.01,2013-01-16 22:20:00,
2013-01-16 17:25:00,33.8,21.8,29.79,SW,215,11.0,19.0,61,0.00,,SCT050,0.00,VWS V14.01,2013-01-16 22:25:00,
2013-01-16 17:35:00,33.5,21.9,29.80,SW,220,11.0,14.0,62,0.00,,SCT050,0.00,VWS V14.01,2013-01-16 22:35:00,
2013-01-16 17:40:00,33.2,22.0,29.80,SSW,210,11.0,13.0,63,0.00,,SCT050,0.00,VWS V14.01,2013-01-16 22:40:00,
2013-01-16 17:45:00,33.1,21.9,29.80,SSW,205,7.0,13.0,63,0.00,,SCT050,0.00,VWS V14.01,2013-01-16 22:45:00,
2013-01-16 17:50:00,33.1,22.3,29.80,SW,222,12.0,17.0,64,0.00,,SCT050,0.00,VWS V14.01,2013-01-16 22:50:00,
2013-01-16 17:55:00,33.1,21.9,29.80,SW,230,9.0,18.0,63,0.00,,SCT050,0.00,VWS V14.01,2013-01-16 22:55:00,
2013-01-16 18:00:00,33.2,22.0,29.81,SW,216,12.0,17.0,63,0.00,,OVC050,0.00,VWS V14.01,2013-01-16 23:00:00,
2013-01-16 18:05:00,33.2,22.0,29.81,WSW,237,7.0,24.0,63,0.00,,OVC050,0.00,VWS V14.01,2013-01-16 23:05:00,
2013-01-16 18:10:00,33.2,22.4,29.81,SW,215,13.0,15.0,64,0.00,,OVC050,0.00,VWS V14.01,2013-01-16 23:10:00,
2013-01-16 18:15:00,33.1,22.3,29.81,SW,224,10.0,19.0,64,0.00,,OVC050,0.00,VWS V14.01,2013-01-16 23:15:00,
2013-01-16 18:20:00,33.1,22.6,29.81,SW,216,14.0,18.0,65,0.00,,OVC050,0.00,VWS V14.01,2013-01-16 23:20:00,
2013-01-16 18:25:00,33.1,22.6,29.81,SW,226,5.0,18.0,65,0.00,,OVC050,0.00,VWS V14.01,2013-01-16 23:25:00,
2013-01-16 18:30:00,33.1,22.6,29.80,SSW,213,13.0,15.0,65,0.00,,OVC050,0.00,VWS V14.01,2013-01-16 23:30:00,
2013-01-16 18:35:00,33.1,22.6,29.80,SW,223,12.0,16.0,65,0.00,,OVC050,0.00,VWS V14.01,2013-01-16 23:35:00,
2013-01-16 18:40:00,33.1,22.6,29.80,SSW,212,10.0,18.0,65,0.00,,OVC050,0.00,VWS V14.01,2013-01-16 23:40:00,
2013-01-16 18:45:00,33.1,22.6,29.81,SW,219,7.0,16.0,65,0.00,,OVC050,0.00,VWS V14.01,2013-01-16 23:45:00,
2013-01-16 18:50:00,33.1,23.0,29.81,SSW,196,8.0,13.0,66,0.00,,OVC050,0.00,VWS V14.01,2013-01-16 23:50:00,
2013-01-16 18:55:00,33.1,23.0,29.81,SW,215,10.0,19.0,66,0.00,,OVC050,0.00,VWS V14.01,2013-01-16 23:55:00,
2013-01-16 19:00:00,33.1,22.6,29.82,SW,227,18.0,21.0,65,0.00,,OVC041,0.00,VWS V14.01,2013-01-17 00:00:00,
2013-01-16 19:05:00,33.1,23.0,29.82,WSW,241,12.0,19.0,66,0.00,,OVC041,0.00,VWS V14.01,2013-01-17 00:05:00,
2013-01-16 19:10:00,33.1,23.0,29.82,SW,233,12.0,18.0,66,0.00,,OVC041,0.00,VWS V14.01,2013-01-17 00:10:00,
2013-01-16 19:20:00,33.1,23.4,29.82,SSW,210,7.0,17.0,67,0.00,,OVC041,0.00,VWS V14.01,2013-01-17 00:20:00,
2013-01-16 19:25:00,32.9,23.2,29.82,SW,222,14.0,21.0,67,0.00,,OVC041,0.00,VWS V14.01,2013-01-17 00:25:00,
2013-01-16 19:30:00,32.9,23.2,29.82,SSW,213,16.0,18.0,67,0.00,,OVC041,0.00,VWS V14.01,2013-01-17 00:30:00,
2013-01-16 19:35:00,32.9,23.2,29.82,SW,224,12.0,20.0,67,0.00,,OVC041,0.00,VWS V14.01,2013-01-17 00:35:00,
2013-01-16 19:40:00,33.1,23.4,29.82,SW,227,14.0,18.0,67,0.00,,OVC041,0.00,VWS V14.01,2013-01-17 00:40:00,
2013-01-16 19:45:00,33.1,23.4,29.83,WSW,237,7.0,16.0,67,0.00,,OVC041,0.00,VWS V14.01,2013-01-17 00:45:00,
2013-01-16 19:50:00,33.1,23.4,29.83,SSW,206,9.0,17.0,67,0.00,,OVC041,0.00,VWS V14.01,2013-01-17 00:50:00,
2013-01-16 19:55:00,33.1,23.4,29.83,WSW,246,14.0,21.0,67,0.00,,OVC041,0.00,VWS V14.01,2013-01-17 00:55:00,
2013-01-16 20:00:00,33.1,23.7,29.83,SW,229,18.0,21.0,68,0.00,,OVC041,0.00,VWS V14.01,2013-01-17 01:00:00,
2013-01-16 20:05:00,33.1,23.7,29.83,SW,234,13.0,18.0,68,0.00,,OVC041,0.00,VWS V14.01,2013-01-17 01:05:00,
2013-01-16 20:10:00,33.1,23.7,29.83,SSW,208,8.0,17.0,68,0.00,,OVC041,0.00,VWS V14.01,2013-01-17 01:10:00,
2013-01-16 20:15:00,32.9,23.9,29.83,South,186,12.0,18.0,69,0.00,,OVC041,0.00,VWS V14.01,2013-01-17 01:15:00,
2013-01-16 20:20:00,32.9,23.9,29.83,WSW,254,18.0,19.0,69,0.00,,OVC041,0.00,VWS V14.01,2013-01-17 01:20:00,
2013-01-16 20:25:00,32.9,23.9,29.83,SW,220,13.0,18.0,69,0.00,,OVC041,0.00,VWS V14.01,2013-01-17 01:25:00,
2013-01-16 20:30:00,32.9,23.9,29.84,SW,234,16.0,17.0,69,0.00,,OVC041,0.00,VWS V14.01,2013-01-17 01:30:00,
2013-01-16 20:35:00,33.1,24.0,29.84,SW,232,13.0,18.0,69,0.00,,OVC041,0.00,VWS V14.01,2013-01-17 01:35:00,
2013-01-16 20:40:00,33.1,24.0,29.84,SW,229,10.0,18.0,69,0.00,,OVC041,0.00,VWS V14.01,2013-01-17 01:40:00,
2013-01-16 20:45:00,33.1,24.4,29.84,WSW,241,18.0,20.0,70,0.00,,OVC041,0.00,VWS V14.01,2013-01-17 01:45:00,
2013-01-16 20:50:00,33.1,24.4,29.84,SW,232,19.0,19.0,70,0.00,,OVC041,0.00,VWS V14.01,2013-01-17 01:50:00,
2013-01-16 20:55:00,33.1,24.4,29.84,SW,220,14.0,21.0,70,0.00,,OVC041,0.00,VWS V14.01,2013-01-17 01:55:00,
2013-01-16 21:00:00,33.1,24.4,29.85,SSW,202,8.0,20.0,70,0.00,,OVC029,0.00,VWS V14.01,2013-01-17 02:00:00,
2013-01-16 21:05:00,33.1,24.7,29.85,SSW,212,7.0,19.0,71,0.00,,OVC029,0.00,VWS V14.01,2013-01-17 02:05:00,
2013-01-16 21:10:00,33.1,24.7,29.85,SSW,205,11.0,17.0,71,0.00,,OVC029,0.00,VWS V14.01,2013-01-17 02:10:00,
2013-01-16 21:15:00,33.1,24.7,29.85,WSW,240,9.0,20.0,71,0.00,,OVC029,0.00,VWS V14.01,2013-01-17 02:15:00,
2013-01-16 21:20:00,33.2,25.2,29.85,SW,229,11.0,19.0,72,0.00,,OVC029,0.00,VWS V14.01,2013-01-17 02:20:00,
2013-01-16 21:25:00,33.2,25.2,29.85,SW,217,11.0,19.0,72,0.00,,OVC029,0.00,VWS V14.01,2013-01-17 02:25:00,
2013-01-16 21:30:00,33.2,25.2,29.86,SW,224,13.0,18.0,72,0.00,,OVC029,0.00,VWS V14.01,2013-01-17 02:30:00,
2013-01-16 21:35:00,33.2,25.2,29.86,SSW,212,10.0,16.0,72,0.00,,OVC029,0.00,VWS V14.01,2013-01-17 02:35:00,
2013-01-16 21:40:00,33.2,25.5,29.86,WSW,244,9.0,17.0,73,0.00,,OVC029,0.00,VWS V14.01,2013-01-17 02:40:00,
2013-01-16 21:45:00,33.2,25.5,29.86,SW,232,7.0,14.0,73,0.00,,OVC029,0.00,VWS V14.01,2013-01-17 02:45:00,
2013-01-16 21:50:00,33.2,25.5,29.86,West,270,7.0,17.0,73,0.00,,OVC029,0.00,VWS V14.01,2013-01-17 02:50:00,
2013-01-16 21:55:00,33.2,25.8,29.86,WSW,240,7.0,16.0,74,0.00,,OVC029,0.00,VWS V14.01,2013-01-17 02:55:00,
2013-01-16 22:00:00,33.2,25.8,29.86,SW,227,4.0,19.0,74,0.00,,OVC027,0.00,VWS V14.01,2013-01-17 03:00:00,
2013-01-16 22:05:00,33.2,25.8,29.86,WSW,237,7.0,17.0,74,0.00,,OVC027,0.00,VWS V14.01,2013-01-17 03:05:00,
2013-01-16 22:15:00,33.2,25.8,29.86,SW,234,11.0,17.0,74,0.00,,OVC027,0.00,VWS V14.01,2013-01-17 03:15:00,
2013-01-16 22:20:00,33.2,25.8,29.86,South,191,10.0,17.0,74,0.00,,OVC027,0.00,VWS V14.01,2013-01-17 03:20:00,
2013-01-16 22:25:00,33.2,25.8,29.86,West,261,9.0,13.0,74,0.00,,OVC027,0.00,VWS V14.01,2013-01-17 03:25:00,
2013-01-16 22:35:00,33.2,26.1,29.86,WSW,253,10.0,14.0,75,0.00,,OVC027,0.00,VWS V14.01,2013-01-17 03:35:00,
2013-01-16 22:40:00,33.2,26.1,29.86,WSW,253,13.0,13.0,75,0.00,,OVC027,0.00,VWS V14.01,2013-01-17 03:40:00,
2013-01-16 22:45:00,33.2,26.1,29.87,SW,220,6.0,16.0,75,0.00,,OVC027,0.00,VWS V14.01,2013-01-17 03:45:00,
2013-01-16 22:50:00,33.1,26.0,29.87,WSW,244,7.0,15.0,75,0.00,,OVC027,0.00,VWS V14.01,2013-01-17 03:50:00,
2013-01-16 22:55:00,33.1,26.0,29.87,WSW,254,10.0,13.0,75,0.00,,OVC027,0.00,VWS V14.01,2013-01-17 03:55:00,
2013-01-16 23:00:00,33.1,26.0,29.87,WSW,254,7.0,11.0,75,0.00,,OVC025,0.00,VWS V14.01,2013-01-17 04:00:00,
2013-01-16 23:05:00,33.1,26.0,29.87,WSW,250,10.0,13.0,75,0.00,,OVC025,0.00,VWS V14.01,2013-01-17 04:05:00,
2013-01-16 23:15:00,33.1,26.0,29.87,WSW,240,9.0,11.0,75,0.00,,OVC025,0.00,VWS V14.01,2013-01-17 04:15:00,
2013-01-16 23:20:00,32.8,25.8,29.87,WSW,253,11.0,12.0,75,0.00,,OVC025,0.00,VWS V14.01,2013-01-17 04:20:00,
2013-01-16 23:25:00,32.7,25.7,29.87,WSW,248,7.0,14.0,75,0.00,,OVC025,0.00,VWS V14.01,2013-01-17 04:25:00,
2013-01-16 23:30:00,32.5,25.8,29.88,WSW,239,7.0,12.0,76,0.00,,OVC025,0.00,VWS V14.01,2013-01-17 04:30:00,
2013-01-16 23:35:00,32.4,25.7,29.88,West,260,10.0,14.0,76,0.00,,OVC025,0.00,VWS V14.01,2013-01-17 04:35:00,
2013-01-16 23:40:00,32.4,25.7,29.88,WSW,248,6.0,13.0,76,0.00,,OVC025,0.00,VWS V14.01,2013-01-17 04:40:00,
2013-01-16 23:45:00,32.2,25.5,29.88,WSW,239,9.0,13.0,76,0.00,,OVC025,0.00,VWS V14.01,2013-01-17 04:45:00,
2013-01-16 23:50:00,32.1,25.4,29.88,SW,229,6.0,11.0,76,0.00,,OVC025,0.00,VWS V14.01,2013-01-17 04:50:00,
2013-01-16 23:55:00,31.9,25.5,29.88,WNW,284,7.0,8.0,77,0.00,,OVC025,0.00,VWS V14.01,2013-01-17 04:55:00,